This demonstration page uses our WeatherBlox Daily Observations layout. Learn more.

Hourly Observations for April 6, 2016

Temp ( °F °C ) Dew Point ( °F °C ) Humidity (%) Winds ( mph kmh ) Pressure ( in mb ) Visibility ( mi km ) Precip ( " mm )
12:15 am 00:15 Clear 51 10.8 25 -4 35 35 NW 23 37 29.88 1012 10 16.0934 0 0
12:35 am 00:35 Clear 51 10.5 25 -3.7 37 37 NW 23 37 29.88 1012 10 16.0934 0 0
12:55 am 00:55 Clear 50 10.2 26 -3.5 38 38 NW 20 31 29.88 1012 10 16.0934 0 0
1:15 am 01:15 Clear 49 9.5 26 -3.1 41 41 NW 20 31 29.91 1013 10 16.0934 0 0
1:35 am 01:35 Clear 49 9.5 27 -2.8 42 42 NW 20 31 29.91 1013 10 16.0934 0 0
1:55 am 01:55 Clear 49 9.5 28 -2.3 44 44 NW 17 28 29.94 1014 10 16.0934 0 0
2:15 am 02:15 Partly Cloudy 49 9.3 28 -2 45 45 NW 17 28 29.94 1014 10 16.0934 0 0
2:35 am 02:35 Cloudy 50 10 29 -1.9 44 44 NW 16 26 29.94 1014 10 16.0934 0 0
2:55 am 02:55 Cloudy 51 10.6 28 -2 42 42 WNW 18 30 29.94 1014 10 16.0934 0 0
3:15 am 03:15 Cloudy 51 10.7 28 -2.1 41 41 WNW 16 26 29.91 1013 10 16.0934 0 0
3:35 am 03:35 Cloudy 51 10.5 28 -2 42 42 WNW 13 20 29.91 1013 10 16.0934 0 0
3:55 am 03:55 Cloudy 51 10.5 28 -2 42 42 NW 15 24 29.91 1013 10 16.0934 0 0
4:15 am 04:15 Cloudy 50 10.1 29 -1.7 44 44 NW 14 22 29.91 1013 10 16.0934 0 0
4:35 am 04:35 Mostly Cloudy 49 9.6 29 -1.6 46 46 NNW 14 22 29.91 1013 10 16.0934 0 0
4:55 am 04:55 Partly Cloudy 50 10 30 -1.3 46 46 NW 31 50 29.91 1013 10 16.0934 0 0
5:15 am 05:15 Clear 49 9.4 29 -1.5 47 47 NW 29 46 29.91 1013 10 16.0934 0 0
5:35 am 05:35 Clear 48 9.1 29 -1.7 47 47 NW 28 44 29.91 1013 10 16.0934 0 0
5:55 am 05:55 Clear 48 8.7 28 -2.2 47 47 NW 23 37 29.91 1013 10 16.0934 0 0
6:15 am 06:15 Clear 47 8.1 28 -2 49 49 NNW 26 43 29.94 1014 10 16.0934 0 0
6:35 am 06:35 Clear 46 8 28 -2.1 49 49 NW 26 43 29.97 1015 10 16.0934 0 0
6:55 am 06:55 Clear 46 7.6 28 -2 51 51 NNW 23 37 29.97 1015 10 16.0934 0 0
7:15 am 07:15 Sunny 45 7.4 29 -1.8 52 52 NW 22 35 29.97 1015 10 16.0934 0 0
7:35 am 07:35 Sunny 44 6.8 29 -1.7 55 55 NW 14 22 29.97 1015 10 16.0934 0 0
7:55 am 07:55 Sunny 45 7 29 -1.6 55 55 NW 14 22 30 1016 10 16.0934 0 0
8:15 am 08:15 Sunny 46 8 29 -1.7 51 51 NW 22 35 30 1016 10 16.0934 0 0
8:35 am 08:35 Sunny 47 8.3 29 -1.8 49 49 NW 18 30 30 1016 10 16.0934 0 0
8:55 am 08:55 Sunny 48 8.8 29 -1.4 49 49 NW 23 37 30 1016 10 16.0934 0 0
9:15 am 09:15 Sunny 48 9.1 29 -1.4 48 48 NNW 26 43 29.97 1015 10 16.0934 0 0
9:35 am 09:35 Sunny 49 9.6 29 -1.6 46 46 NW 30 48 30 1016 10 16.0934 0 0
9:55 am 09:55 Sunny 51 10.4 29 -1.7 43 43 NNW 25 41 30 1016 10 16.0934 0 0
10:15 am 10:15 Sunny 51 10.8 28 -2.2 41 41 NW 28 44 30 1016 10 16.0934 0 0
10:35 am 10:35 Sunny 52 11.2 28 -2.5 39 39 NNW 28 44 30 1016 10 16.0934 0 0
10:55 am 10:55 Sunny 53 11.9 26 -3.1 35 35 NNW 30 48 30 1016 10 16.0934 0 0
11:15 am 11:15 Sunny 55 12.5 26 -3.6 33 33 NNW 28 44 30 1016 10 16.0934 0 0
11:35 am 11:35 Sunny 55 12.9 25 -4 31 31 NNW 36 57 30 1016 10 16.0934 0 0
11:55 am 11:55 Sunny 56 13.5 25 -4.1 29 29 NNW 31 50 29.97 1015 10 16.0934 0 0
12:15 pm 12:15 Sunny 57 14.1 25 -3.7 29 29 NNW 28 44 29.97 1015 10 16.0934 0 0
12:35 pm 12:35 Sunny 58 14.7 25 -3.9 28 28 NNW 25 41 29.97 1015 10 16.0934 0 0
12:55 pm 12:55 Sunny 59 15.1 24 -4.3 26 26 NW 30 48 29.97 1015 10 16.0934 0 0
1:15 pm 13:15 Sunny 60 15.8 25 -3.9 26 26 NW 25 41 29.97 1015 10 16.0934 0 0
1:35 pm 13:35 Partly Cloudy 61 16 25 -4.1 25 25 NW 23 37 29.94 1014 10 16.0934 0 0
1:55 pm 13:55 Partly Cloudy 62 16.4 24 -4.4 24 24 NNW 21 33 29.91 1013 10 16.0934 0 0
2:15 pm 14:15 Partly Cloudy 63 17.1 24 -4.5 23 23 NW 25 41 29.91 1013 10 16.0934 0 0
2:35 pm 14:35 Sunny 63 17.3 23 -4.9 22 22 NW 23 37 29.91 1013 10 16.0934 0 0
2:55 pm 14:55 Sunny 64 17.5 23 -4.9 21 21 NNW 16 26 29.91 1013 10 16.0934 0 0
3:15 pm 15:15 Sunny 64 17.8 23 -4.8 21 21 NW 25 41 29.88 1012 10 16.0934 0 0
3:35 pm 15:35 Partly Cloudy 64 17.7 22 -5.4 20 20 NNW 18 30 29.88 1012 10 16.0934 0 0
3:55 pm 15:55 Sunny 65 18.2 22 -5.5 20 20 WNW 22 35 29.85 1011 10 16.0934 0 0
4:15 pm 16:15 Sunny 66 18.9 22 -5.4 19 19 NNW 15 24 29.83 1010 10 16.0934 0 0
4:35 pm 16:35 Sunny 66 18.9 22 -5.8 18 18 NW 23 37 29.83 1010 10 16.0934 0 0
4:55 pm 16:55 Sunny 66 19 22 -5.5 19 19 NW 16 26 29.8 1009 10 16.0934 0 0
5:15 pm 17:15 Sunny 66 18.7 22 -5.7 19 19 NW 18 30 29.8 1009 10 16.0934 0 0
5:35 pm 17:35 Sunny 65 18.6 22 -5.5 19 19 NW 21 33 29.8 1009 10 16.0934 0 0
5:55 pm 17:55 Sunny 66 18.9 22 -5.5 19 19 NW 22 35 29.8 1009 10 16.0934 0 0
6:15 pm 18:15 Sunny 65 18.6 23 -5.2 19 19 NNW 17 28 29.8 1009 10 16.0934 0 0
6:35 pm 18:35 Sunny 65 18.4 23 -5.1 20 20 NNW 20 31 29.8 1009 10 16.0934 0 0
6:55 pm 18:55 Sunny 65 18.6 23 -5 20 20 NNW 16 26 29.8 1009 10 16.0934 0 0
7:15 pm 19:15 Sunny 65 18.4 23 -5 20 20 NNW 16 26 29.8 1009 10 16.0934 0 0
7:35 pm 19:35 Sunny 63 17.3 23 -5 22 22 NNW 15 24 29.83 1010 10 16.0934 0 0
7:55 pm 19:55 Sunny 62 16.5 24 -4.6 23 23 N 12 19 29.83 1010 10 16.0934 0 0
8:15 pm 20:15 Mostly Cloudy 60 15.5 24 -4.5 25 25 N 7 11 29.83 1010 10 16.0934 0 0
8:35 pm 20:35 Cloudy 59 15 25 -4.1 27 27 NNW 3 6 29.83 1010 10 16.0934 0 0
8:55 pm 20:55 Cloudy 58 14.5 24 -4.2 27 27 Calm 29.85 1011 10 16.0934 0 0
9:15 pm 21:15 Cloudy 56 13.2 25 -4.1 30 30 WNW 3 6 29.85 1011 10 16.0934 0 0
9:35 pm 21:35 Cloudy 56 13.5 26 -3.6 31 31 Calm 29.88 1012 10 16.0934 0 0
9:55 pm 21:55 Mostly Cloudy 57 13.7 26 -3.3 31 31 W 3 6 29.88 1012 10 16.0934 0 0
10:15 pm 22:15 Mostly Cloudy 56 13.5 26 -3.4 31 31 WNW 5 7 29.91 1013 10 16.0934 0 0
10:35 pm 22:35 Mostly Cloudy 56 13.3 26 -3.5 31 31 NNW 6 9 29.91 1013 10 16.0934 0 0
10:55 pm 22:55 Mostly Cloudy 56 13.5 26 -3.3 31 31 N 7 11 29.91 1013 10 16.0934 0 0
11:15 pm 23:15 Cloudy 57 14 27 -2.8 31 31 NNW 7 11 29.91 1013 10 16.0934 0 0
11:35 pm 23:35 Cloudy with Light Rain 57 14.1 29 -1.5 34 34 N 8 13 29.91 1013 10 16.0934 0 0
11:55 pm 23:55 Cloudy with Light Drizzle 56 13.2 32 0.1 41 41 N 7 11 29.91 1013 10 16.0934 0 0

Powered by AerisWeather